User: anonymous   Login
Location: Theydon Bois
(51.6750°N, 0.1050°E)
Time: 23:29:27
(UTC+01:00)
Language:

Cosmos 1758 - Orbit

View from above orbital plane
View from above orbital plane
View from above satellite
View from above satellite

Ground track
Ground track

The orbit data is extracted from the following two-line orbital elements,

1 16791U 86046A   17290.04869129  .00000743  00000-0  50823-4 0  9992
2 16791  82.4683 273.3307 0017497  38.4150 321.8318 15.04529908704001
Epoch (UTC): 17 October 2017 01:10:06
Eccentricity: 0.0017497
inclination: 82.4683°
perigee height: 541 km
apogee height: 565 km
right ascension of ascending node: 273.3307°
argument of perigee: 38.4150°
revolutions per day: 15.04529908
mean anomaly at epoch: 321.8318°
orbit number at epoch: 70400

The dashed part of the orbit path shows where the satellite is in the earth's shadow,  

DLR